Regional Weather Roundup
Issued by NWS New Orleans/Baton Rouge, LA

Home | Current Version | Previous Version | Text Only | Print | Product List | Glossary On
Versions: 1 2 3 4 5 6 7 8 9 10 11 12 13 14 15 16 17 18 19 20 21 22 23 24 25 26 27 28 29 30 31 32 33 34 35 36 37 38 39 40 41 42 43 44 45 46 47 48 49 50
254
ASUS44 KLIX 270701
RWRLIX
NEW ORLEANS REGIONAL WEATHER ROUNDUP
NATIONAL WEATHER SERVICE NEW ORLEANS LA
100 AM CST THU NOV 27 2014

NOTE: "FAIR" INDICATES FEW OR NO CLOUDS BELOW 12,000 FEET WITH NO
      SIGNIFICANT WEATHER AND/OR OBSTRUCTIONS TO VISIBILITY.
      SKY/WX - SKY CONDITION AND SIGNIFICANT WEATHER.
      TMP - AIR TEMPERATURE.     DP    - DEWPOINT TEMPERATURE.
      RH  - RELATIVE HUMIDITY.   PRES  - PRESSURE.
      HI  - HEAT INDEX.          WCI   - WIND CHILL INDEX.

*  THESE STATIONS ARE NOT NWS OR FAA STATIONS AND ARE NOT UNDER
   NWS QUALITY CONTROL.

LAZ038-040-048-061>063-065>067-069-270800-
SOUTHEAST LOUISIANA

CITY           SKY/WX    TMP DP  RH WIND       PRES   REMARKS
N.O. AUDUBON     N/A     55  50  82 MISG        N/A
N.O. INTL ARPT CLEAR     55  48  77 W10       30.28R
N.O. LAKEFRONT CLEAR     58  50  75 W16       30.27S
N.O. DOWNTOWN*   N/A     55  46  71 SW3       30.28S
SLIDELL        CLEAR     54  47  77 CALM      30.27R
BATON ROUGE    CLEAR     49  43  80 W6        30.30R
BOOTHVILLE     CLEAR     59  53  80 W10       30.29R
BELLE CHASSE   CLEAR     52  47  83 SW3       30.28R
BOGALUSA*        N/A     47  41  77 NW5       30.28R
NEW ROADS*     NOT AVBL
GONZALES*      NOT AVBL
HAMMOND*       NOT AVBL
HOUMA*         CLEAR     53  52  97 W5        30.29S
PORT FOURCHON* SUNNY     59  55  88 W12       30.33R

$$

MSZ070-080>082-270800-
SOUTHERN MISSISSIPPI

CITY           SKY/WX    TMP DP  RH WIND       PRES   REMARKS
MCCOMB         CLEAR     46  38  73 NW6       30.28R
GULFPORT       CLEAR     52  45  77 W6        30.26R
BILOXI         CLEAR     54  47  77 VRB3      30.25R
PASCAGOULA     CLEAR     53  45  74 W5        30.25R

$$

COASTAL OBSERVATIONS
LAKE AND NEARSHORE STATIONS

STATION/POSITION TIME  TEMP    WIND        PRES    WAVE
                       AIR SEA DIR/SP/G            HT/PER
                 (UTC) (F)     (DEG/KT/KT) (MB)    (FT/S)
PASCAGOULA       0600   57     260/ 12/ 17 1023.6
WAVELAND YACHT   0600   55     260/  6/ 10 1023.5
GRAND ISLE       0600   60 60  300/ 14/ 16 1025.8
SOUTHWEST PASS   0600   66                 1025.9
NEW CANAL        0600   59 54  250/ 11/ 15 1025.3
SHELL BEACH      0600   59 53  260/ 15/ 18 1024.8

OFFSHORE STATIONS

STATION/POSITION TIME  TEMP    WIND        PRES    WAVE
                       AIR SEA DIR/SP/G            HT/PER
                 (UTC) (F)     (DEG/KT/KT) (MB)    (FT/S)
64 S DAUPHIN ISL 0559   66 70  280/ 27/ 33 1025.2    7/ 6

$$




USA.gov is the U.S. government's official web portal to all federal, state and local government web resources and services.